Regional Weather Roundup
Issued by NWS

Home | Current Version | Previous Version | Text Only | Print | Product List | Glossary Off
Versions: 1 2 3 4 5 6 7 8 9 10 11 12 13 14 15 16 17 18 19 20 21 22 23 24 25 26 27 28 29 30 31 32 33 34 35 36 37 38 39 40 41 42 43 44 45 46 47 48 49 50

000
ASUS43 KMKX 230711
RWRWI

WISCONSIN REGIONAL WEATHER ROUNDUP
NATIONAL WEATHER SERVICE MILWAUKEE/SULLIVAN WI
200 AM CDT WED APR 23 2014

NOTE: "FAIR" INDICATES FEW OR NO CLOUDS BELOW 12,000 FEET WITH NO
SIGNIFICANT WEATHER AND/OR OBSTRUCTIONS TO VISIBILITY.

WIZ001-002-006>008-014>016-023>028-230800-
NORTHWEST WISCONSIN

CITY           SKY/WX    TMP DP  RH WIND       PRES   REMARKS
SUPERIOR ARPT  CLEAR     31  26  83 NE3       30.14R
ASHLAND        CLEAR     26  24  92 SW3       30.15R
HAYWARD        CLEAR     26  21  81 CALM      30.13R
SIREN          CLEAR     30  23  77 E3        30.11S
RICE LAKE      CLEAR     30  28  90 CALM      30.14R
LADYSMITH      CLEAR     30  27  88 CALM      30.14S
EAU CLAIRE     CLEAR     30  23  75 NE5       30.11F WCI  25
MENOMONIE      SUNNY     36  28  71 E3        30.12S
NEW RICHMOND   CLEAR     39  26  59 E7        30.10S WCI  34
OSCEOLA        CLEAR     39  27  61 E8        30.12S WCI  33
$$

WIZ003>005-009-010-017-018-230800-
NORTH CENTRAL WISCONSIN

CITY           SKY/WX    TMP DP  RH WIND       PRES   REMARKS
WOODRUFF       CLEAR     23  11  60 CALM      30.12S
RHINELANDER    CLEAR     24  21  88 W3        30.13R
EAGLE RIVER    CLEAR     24  24 100 CALM      30.12R
LAND O LAKES   CLEAR     22  21  96 CALM      30.13R
PHILLIPS       CLEAR     26  24  90 CALM      30.12R
TOMAHAWK       CLEAR     23  21  93 CALM      30.12S
MEDFORD        CLEAR     29  27  91 CALM      30.12S
MERRILL        CLEAR     25  23  93 CALM      30.13S
$$

WIZ029-030-035-036-043>047-230800-
CENTRAL WISCONSIN

CITY           SKY/WX    TMP DP  RH WIND       PRES   REMARKS
WAUSAU         CLEAR     31  26  82 NW3       30.12R
MOSINEE        CLEAR     34  28  80 CALM      30.14R
MARSHFIELD     CLEAR     34  25  69 CALM      30.12S
STEVENS POINT  CLEAR     26  23  86 CALM      30.14R
WAUPACA        CLEAR     36  27  69 CALM      30.14R
WAUTOMA        CLEAR     31  28  88 CALM      30.14R
WISC RAPIDS    CLEAR     30  25  81 CALM      30.14R
CAMP DOUGLAS   CLEAR     27  27  99 CALM      30.13S
$$

WIZ011>013-019>022-031-037>040-048>050-230800-
NORTHEAST WISCONSIN

CITY           SKY/WX    TMP DP  RH WIND       PRES   REMARKS
ANTIGO         CLEAR     26  24  93 CALM      30.13R
STURGEON BAY   CLEAR     28  25  86 CALM      30.13S
GREEN BAY      CLEAR     32  28  85 W5        30.14R WCI  27
MANITOWOC      CLEAR     33  27  78 NW5       30.13R WCI  29
APPLETON       CLEAR     32  27  80 N3        30.13R
CLINTONVILLE   CLEAR     30  27  86 CALM      30.13S
OSHKOSH        CLEAR     38  27  64 NE5       30.12S WCI  34
$$

WIZ032>034-041-042-053>061-230800-
SOUTHWEST WISCONSIN

CITY           SKY/WX    TMP DP  RH WIND       PRES   REMARKS
LA CROSSE      CLEAR     43  26  51 CALM      30.12S
SPARTA         CLEAR     29  24  81 CALM      30.13F
VIROQUA        FAIR      36  27  70 E7        30.10S WCI  30
BOSCOBEL       CLEAR     37  30  75 CALM      30.12R
PRAIRIE DU CHI CLEAR     37  31  78 CALM      30.10F
PLATTEVILLE    FAIR      40  27  58 NE10      30.11S WCI  34
$$

WIZ056-057-062-063-064-067-068-230800-
SOUTH CENTRAL WISCONSIN

CITY           SKY/WX    TMP DP  RH WIND       PRES   REMARKS
BARABOO/DELLS  CLEAR     35  26  69 CALM      30.12S
LONE ROCK      CLEAR     38  28  67 CALM      30.13R
WATERTOWN      CLEAR     32  29  88 CALM      30.12R
MADISON        CLEAR     35  28  75 NW3       30.13R
MIDDLETON      FAIR      34  28  80 CALM      30.12S
MONROE         CLEAR     38  30  72 NE3       30.10S
JANESVILLE     CLEAR     34  30  86 CALM      30.11S
$$

WIZ051-052-058>065-066-070>072-230800-
SOUTHEAST WISCONSIN

CITY           SKY/WX    TMP DP  RH WIND       PRES   REMARKS
MILWAUKEE      CLEAR     35  29  78 N8        30.13R WCI  29
WAUKESHA       CLEAR     32  28  86 NE3       30.13S
MILWAUKEE/TIMM CLEAR     34  28  80 NE3       30.13R
RACINE         CLEAR     34  28  79 N8        30.13S WCI  27
BURLINGTON     CLEAR     32  28  86 CALM      30.13R
KENOSHA        CLEAR     34  29  82 N3        30.12R
FOND DU LAC    CLEAR     37  27  67 NE3       30.13R
SHEBOYGAN      CLEAR     30  29  96 W3        30.12S
WEST BEND      CLEAR     32  28  86 CALM      30.12S
JUNEAU         CLEAR     37  28  68 CALM      30.13R
$$

LSZ147-162-230800-
LAKE SUPERIOR

STATION/POSITION TIME  TEMP    WIND        PRES    WAVE
                       AIR SEA DIR/SP/G            HT/PER
                 (UTC) (F)     (DEG/KT/KT) (MB)    (FT/S)
DEVILS ISLAND    0700   37     120/  1/  2 1021.5R
PORT WING        0600   29     180/  2/  2 1020.3R
SAXON HARBOR     0600           CALM  /  3 1020.3
$$

LMZ867-665-643>646-230800-
LAKE MICHIGAN

STATION/POSITION TIME  TEMP    WIND        PRES    WAVE
                       AIR SEA DIR/SP/G            HT/PER
                 (UTC) (F)     (DEG/KT/KT) (MB)    (FT/S)
NORTHPORT PIER   0600   32     300/  7/ 10 1020.0R
SISTER BAY       0609   32      10/  7/  8   N/A
KEWAUNEE LAKESHO 0600   32     320/  3/  5 1020.6R
SHEBOYGAN LAKESH 0700   37     360/  8/  9 1020.7F
PORT WASHINGTON  0600   36      10/  5/  6 1020.7
MILWAUKEE LAKESH 0600   36      20/ 12/ 14   N/A
KENOSHA   LAKESH 0700   37      20/ 15/ 18   N/A
$$

TC  - TEMPERATURE IN CELSIUS
VSB - VISIBILITY IN STATUTE MILES
WCI - WIND CHILL INDEX
HX  - HEAT INDEX




USA.gov is the U.S. government's official web portal to all federal, state and local government web resources and services.